[[{"header":{"parameterUnit":"m.s-1","parameterCategory":1,"la1":30.2991,"la2":30.254,"lo1":-89.0895,"lo2":-89.0444,"dy":0.0017,"dx":0.0017,"nx":28,"ny":28,"refTime":"2024-06-21T03:00:00:Z","depth":0,"parameterNumber":2,"parameterNumberName":"U-component_of_WINDS"},"data":[0,0,0,0,0,0,0,0,0,0,0,0,0,0,0,0,0,0,0,0,0,0,0,0,0,0,0,0,0,0,0,0,0,0,0,0,0,0,0,0,0,0,0,0,0,0,0,0,0,0,0,0,0,0,0,0,0,0,-4.3064,-4.3066,0,-4.328,-4.3283,-4.3285,-4.3241,-4.3237,-4.3233,-4.3229,-4.3455,-4.3465,-4.3474,0,0,0,0,0,0,0,0,0,0,0,0,0,-4.2616,-4.2625,-4.3063,-4.3066,-4.3069,-4.328,-4.3283,-4.3286,-4.3242,-4.3237,-4.3232,-4.3227,-4.3452,-4.3463,-4.3475,0,0,0,0,0,0,0,0,0,0,0,0,0,-4.282,-4.2628,-4.3063,-4.3072,-4.3075,-4.3279,-4.3283,-4.3286,-4.3243,-4.3237,-4.3231,-4.3225,-4.3448,-4.3462,-4.3477,-4.3686,0,0,-4.3521,-4.3528,0,0,0,0,0,0,0,0,-4.2808,-4.2836,-4.3068,-4.3072,-4.3075,-4.3227,-4.3208,-4.3421,-4.3244,-4.3179,-4.3229,-4.3222,-4.3384,-4.3404,-4.3458,-4.3697,-4.3707,-4.3523,-4.3532,-4.3538,-4.3542,0,0,0,0,0,0,0,-4.2794,-4.2827,-4.3149,-4.3071,-4.3076,-4.3067,-4.3089,-4.3248,-4.3313,-4.3184,-4.3182,-4.3208,-4.3385,-4.3444,-4.3463,-4.371,-4.3522,-4.3535,-4.3544,-4.355,-4.4135,-4.4142,0,0,0,0,0,0,-4.2776,-4.2815,-4.3142,-4.3156,-4.2924,-4.308,-4.3105,-4.3185,-4.3311,-4.3324,-4.3213,-4.3205,-4.3422,-4.3446,-4.3471,-4.3727,-4.3538,-4.3551,-4.356,-4.4129,-4.4137,-4.4144,0,0,0,0,0,0,-4.2767,-4.2806,-4.3133,-4.2985,-4.3026,-4.3094,-4.3184,-4.3192,-4.325,-4.3332,-4.3344,-4.326,-4.3418,-4.345,-4.3633,-4.3734,-4.3558,-4.3571,-4.4121,-4.4131,-4.4141,-4.4239,0,0,0,0,0,0,-4.2754,-4.2803,-4.2882,-4.2987,-4.3034,-4.3292,-4.319,-4.3201,-4.3275,-4.3267,-4.338,-4.3393,-4.3416,-4.3612,-4.3648,-4.3751,-4.3583,-4.4112,-4.4125,-4.4137,-4.4227,-4.4251,-4.4272,0,0,0,0,0,-4.2738,-4.2901,-4.2886,-4.2926,-4.3134,-4.3297,-4.3324,-4.3346,-4.3283,-4.3365,-4.3417,-4.3389,-4.3717,-4.3631,-4.3671,-4.378,-4.4106,-4.4122,-4.4136,-4.4217,-4.4246,-4.4271,0,0,0,0,0,0,-4.2806,-4.2915,-4.2899,-4.31,-4.319,-4.3289,-4.3392,-4.3376,-4.3487,-4.3475,-4.3498,-4.3524,-4.3712,-4.3764,-4.3667,-4.3991,-4.3903,-4.3927,-4.395,-4.3979,-4.4001,-4.3985,-4.3595,0,0,0,0,0,-4.2845,-4.2967,-4.3055,-4.3225,-4.327,-4.3324,-4.3396,-4.3405,-4.3499,-4.3537,-4.3603,-4.3697,-4.3821,-4.3903,-4.4021,-4.4234,-4.426,-4.4329,-4.4351,-4.4369,-4.439,-4.451,-4.4542,-4.4195,-4.4194,-4.4194,0,0,-4.2926,-4.3,-4.3076,-4.324,-4.3311,-4.3439,-4.3356,-4.3494,-4.359,-4.3558,-4.3736,-4.3788,-4.3895,-4.4094,-4.4186,-4.4144,-4.4492,-4.4389,-4.4402,-4.4414,-4.4529,-4.4562,-4.4591,-4.4205,-4.4203,-4.4201,0,0,-4.3138,-4.3206,-4.3355,-4.3428,-4.3535,-4.357,-4.3606,-4.3709,-4.3742,-4.392,-4.39,-4.4015,-4.4227,-4.4305,-4.4372,-4.4617,-4.4596,-4.4655,-4.4773,-4.4889,-4.4916,-4.4941,-4.503,-4.5062,-4.4675,-4.4675,-4.4676,0,-4.3226,-4.3416,-4.3434,-4.3576,-4.365,-4.3626,-4.3779,-4.3849,-4.399,-4.4043,-4.3993,-4.4262,-4.4331,-4.455,-4.461,-4.4664,-4.4709,-4.4643,-4.491,-4.4935,-4.4958,-4.5044,-4.5078,-4.4682,-4.4681,-4.4681,-4.468,0,-4.352,-4.3652,-4.376,-4.3897,-4.3983,-4.4129,-4.4172,-4.4257,-4.426,-4.43,-4.4484,-4.4567,-4.4703,-4.4755,-4.4759,-4.4976,-4.4947,-4.4904,-4.4816,-4.4998,-4.5079,-4.5112,-4.4691,-4.4689,-4.4687,-4.4685,0,0,-4.3782,-4.3927,-4.3967,-4.403,-4.4147,-4.4251,-4.4397,-4.4529,-4.4604,-4.4702,-4.4827,-4.5009,-4.497,-4.5047,-4.5059,-4.5161,-4.5352,-4.5105,-4.5108,-4.515,-4.56,-4.5633,-4.5671,-4.5339,-4.5345,-4.535,-4.5592,0,-4.4007,-4.4264,-4.4286,-4.4518,-4.4642,-4.4622,-4.475,-4.4837,-4.488,-4.4993,-4.504,-4.5169,-4.5107,-4.5153,-4.5253,-4.5308,-4.5443,-4.529,-4.5458,-4.5464,-4.5434,-4.5713,-4.5748,-4.5973,-4.5624,-4.5629,-4.5633,0,-4.4304,-4.4412,-4.4656,-4.4758,-4.4811,-4.4925,-4.505,-4.5157,-4.5257,-4.5281,-4.5367,-4.5366,-4.5519,-4.5424,-4.5637,-4.5533,-4.5603,-4.564,-4.565,-4.5668,-4.5561,-4.5741,-4.6044,-4.6079,-4.5683,-4.5679,-4.5675,0,-4.4474,-4.468,-4.4853,-4.4907,-4.503,-4.5111,-4.5166,-4.526,-4.5339,-4.5448,-4.55,-4.5625,-4.5695,-4.5794,-4.5828,-4.5755,-4.6041,-4.5948,-4.6067,-4.6067,-4.613,-4.6126,-4.6451,-4.6171,-4.6171,-4.617,-4.6169,0,-4.4725,-4.4876,-4.4931,-4.5038,-4.5207,-4.5231,-4.5399,-4.545,-4.5534,-4.5652,-4.5642,-4.5754,-4.5791,-4.5909,-4.5937,-4.6111,-4.6142,-4.6168,-4.6174,-4.617,-4.6167,-4.6217,-4.6203,-4.6179,-4.6177,-4.6175,-4.6174,0,-4.4944,-4.4986,-4.5174,-4.5275,-4.5304,-4.5425,-4.5513,-4.5617,-4.5657,-4.5807,-4.5844,-4.5909,-4.6048,-4.6091,-4.6259,-4.6278,-4.6482,-4.6473,-4.6448,-4.645,-4.6568,-4.6557,-4.6938,-4.6991,-4.6675,-4.6678,-4.668,0,-4.5102,-4.5217,-4.5331,-4.5409,-4.5467,-4.5593,-4.5673,-4.5702,-4.5787,-4.591,-4.6001,-4.6138,-4.6249,-4.6474,-4.6537,-4.6666,-4.6662,-4.6787,-4.6681,-4.6675,-4.6667,-4.666,-4.6673,-4.6807,-4.681,-4.6813,-4.6815,0,-4.5379,-4.5395,-4.551,-4.5635,-4.5731,-4.583,-4.5926,-4.5991,-4.6034,-4.613,-4.6272,-4.6358,-4.653,-4.6668,-4.68,-4.6859,-4.6847,-4.6848,-4.6883,-4.6881,-4.6863,-4.6877,-4.6505,-4.6839,-4.6837,-4.6835,-4.6834,-4.6833,-4.5574,-4.5677,-4.5773,-4.5903,-4.5978,-4.6068,-4.6172,-4.6226,-4.6344,-4.6485,-4.6495,-4.665,-4.6749,-4.6924,-4.699,-4.7113,-4.7077,-4.7127,-4.714,-4.7153,-4.7163,-4.6841,-4.7137,-4.7136,-4.7136,-4.7135,-4.7135,0,-4.5852,-4.5913,-4.6033,-4.6167,-4.627,-4.6247,-4.6352,-4.6441,-4.6576,-4.6669,-4.6779,-4.6944,-4.7078,-4.7152,-4.7286,-4.737,-4.7368,-4.7405,-4.74,-4.7415,-4.7186,-4.7144,-4.7405,-4.7405,-4.7405,-4.7405,-4.7405,-4.7405,-4.6009,-4.6183,-4.621,-4.6422,-4.6482,-4.6633,-4.6695,-4.678,-4.6854,-4.7038,-4.7149,-4.7195,-4.7282,-4.7423,-4.7546,-4.7564,-4.7616,-4.7657,-4.7672,-4.7458,-4.743,-4.7404,-4.7364,-4.7667,-4.7668,-4.7891,-4.7893,-4.7894]},{"header":{"parameterUnit":"m.s-1","parameterCategory":1,"la1":30.2991,"la2":30.254,"lo1":-89.0895,"lo2":-89.0444,"dy":0.0017,"dx":0.0017,"nx":28,"ny":28,"refTime":"2024-06-21T03:00:00:Z","depth":0,"parameterNumber":3,"parameterNumberName":"V-component_of_WINDS"},"data":[0,0,0,0,0,0,0,0,0,0,0,0,0,0,0,0,0,0,0,0,0,0,0,0,0,0,0,0,0,0,0,0,0,0,0,0,0,0,0,0,0,0,0,0,0,0,0,0,0,0,0,0,0,0,0,0,0,0,-2.1885,-2.1884,0,-2.1756,-2.1754,-2.1753,-2.1677,-2.1677,-2.1677,-2.1677,-2.1536,-2.1533,-2.1529,0,0,0,0,0,0,0,0,0,0,0,0,0,-2.2058,-2.2055,-2.1885,-2.1884,-2.1882,-2.1756,-2.1754,-2.1752,-2.1677,-2.1677,-2.1677,-2.1676,-2.1537,-2.1533,-2.1529,0,0,0,0,0,0,0,0,0,0,0,0,0,-2.1961,-2.2054,-2.1886,-2.183,-2.1823,-2.1756,-2.1754,-2.1752,-2.1678,-2.1677,-2.1677,-2.1676,-2.1539,-2.1533,-2.1528,-2.1505,0,0,-2.1512,-2.151,0,0,0,0,0,0,0,0,-2.1967,-2.1955,-2.1839,-2.1833,-2.1826,-2.1733,-2.1764,-2.1669,-2.1678,-2.1733,-2.1677,-2.1676,-2.1601,-2.1591,-2.1567,-2.1498,-2.1492,-2.1512,-2.1509,-2.1506,-2.1505,0,0,0,0,0,0,0,-2.1973,-2.196,-2.1834,-2.1838,-2.183,-2.1808,-2.1794,-2.1745,-2.1671,-2.1728,-2.1722,-2.1708,-2.1597,-2.1572,-2.1563,-2.149,-2.1512,-2.1507,-2.1504,-2.1502,-2.1391,-2.1391,0,0,0,0,0,0,-2.199,-2.1966,-2.1838,-2.183,-2.1897,-2.1805,-2.1789,-2.1763,-2.1671,-2.1657,-2.1709,-2.1705,-2.1582,-2.157,-2.1558,-2.1522,-2.1507,-2.1502,-2.1499,-2.1391,-2.1391,-2.1391,0,0,0,0,0,0,-2.1994,-2.198,-2.1843,-2.1896,-2.1877,-2.1803,-2.1774,-2.1761,-2.1736,-2.1657,-2.1642,-2.1698,-2.1581,-2.1565,-2.1518,-2.1516,-2.1499,-2.1495,-2.139,-2.1391,-2.1391,-2.1452,0,0,0,0,0,0,-2.2,-2.1982,-2.1974,-2.1897,-2.1875,-2.1809,-2.1774,-2.1758,-2.1728,-2.1722,-2.1642,-2.1629,-2.1579,-2.1526,-2.1513,-2.1509,-2.149,-2.139,-2.139,-2.1391,-2.145,-2.1454,-2.1458,0,0,0,0,0,-2.2006,-2.1995,-2.1974,-2.1959,-2.1865,-2.1809,-2.1796,-2.1742,-2.1728,-2.1718,-2.1667,-2.1631,-2.1519,-2.1522,-2.1507,-2.1501,-2.139,-2.139,-2.1391,-2.1448,-2.1453,-2.1458,0,0,0,0,0,0,-2.2072,-2.1984,-2.196,-2.1925,-2.1875,-2.1796,-2.1783,-2.175,-2.1701,-2.1697,-2.1629,-2.1612,-2.157,-2.153,-2.1536,-2.1471,-2.145,-2.1447,-2.1499,-2.1503,-2.1508,-2.1518,-2.1486,0,0,0,0,0,-2.2083,-2.2048,-2.1972,-2.1948,-2.1924,-2.1858,-2.1832,-2.1794,-2.1739,-2.1717,-2.1662,-2.1607,-2.1559,-2.1529,-2.1481,-2.1443,-2.1423,-2.1431,-2.1436,-2.1439,-2.1437,-2.1412,-2.1414,-2.1392,-2.1392,-2.1392,0,0,-2.2104,-2.2052,-2.2033,-2.196,-2.1917,-2.1879,-2.1841,-2.1803,-2.1773,-2.171,-2.1662,-2.162,-2.1554,-2.1512,-2.149,-2.1477,-2.1439,-2.144,-2.1444,-2.1439,-2.1412,-2.1414,-2.1416,-2.1392,-2.1392,-2.1392,0,0,-2.2123,-2.2082,-2.2056,-2.2014,-2.195,-2.1906,-2.19,-2.1826,-2.1796,-2.1748,-2.1699,-2.1661,-2.1581,-2.1535,-2.1501,-2.1501,-2.1465,-2.1487,-2.1509,-2.1484,-2.1486,-2.1487,-2.1485,-2.1485,-2.1486,-2.1486,-2.1486,0,-2.2157,-2.2101,-2.2046,-2.2011,-2.1978,-2.1922,-2.1894,-2.1854,-2.1777,-2.1755,-2.1742,-2.1639,-2.159,-2.1535,-2.1535,-2.151,-2.1498,-2.1496,-2.1491,-2.1491,-2.1491,-2.1489,-2.1488,-2.1489,-2.1488,-2.1488,-2.1488,0,-2.2144,-2.2106,-2.2092,-2.2022,-2.1988,-2.1956,-2.1893,-2.1864,-2.1829,-2.1785,-2.1735,-2.1675,-2.1612,-2.1596,-2.1561,-2.1535,-2.1528,-2.1505,-2.1482,-2.1498,-2.1493,-2.1492,-2.1493,-2.1492,-2.1491,-2.149,0,0,-2.2202,-2.2102,-2.2097,-2.2064,-2.1988,-2.1956,-2.192,-2.1861,-2.1837,-2.1785,-2.1751,-2.1683,-2.166,-2.1622,-2.158,-2.1559,-2.156,-2.1537,-2.1534,-2.1542,-2.1524,-2.1542,-2.1542,-2.1536,-2.1536,-2.1535,-2.1529,0,-2.2209,-2.2146,-2.2094,-2.2048,-2.201,-2.1955,-2.1923,-2.1872,-2.1829,-2.1788,-2.1739,-2.1692,-2.1666,-2.1642,-2.1619,-2.1565,-2.1555,-2.1565,-2.15,-2.1499,-2.1518,-2.154,-2.156,-2.1557,-2.1527,-2.1527,-2.1527,0,-2.221,-2.2162,-2.2113,-2.204,-2.2022,-2.1995,-2.1936,-2.1899,-2.1837,-2.1807,-2.1764,-2.1721,-2.1677,-2.1659,-2.1595,-2.1603,-2.1573,-2.1542,-2.1541,-2.1532,-2.1514,-2.153,-2.1555,-2.1554,-2.1524,-2.1524,-2.1525,0,-2.2255,-2.2178,-2.2138,-2.2111,-2.2026,-2.2007,-2.197,-2.1909,-2.1876,-2.1823,-2.1801,-2.1743,-2.171,-2.1664,-2.1605,-2.1598,-2.1546,-2.1524,-2.1517,-2.1519,-2.1508,-2.151,-2.1527,-2.1491,-2.1491,-2.1491,-2.1491,0,-2.2268,-2.2239,-2.2157,-2.2133,-2.2098,-2.2038,-2.2004,-2.1962,-2.1907,-2.1871,-2.1818,-2.1784,-2.1709,-2.1665,-2.1618,-2.1571,-2.1557,-2.1529,-2.1516,-2.1533,-2.1536,-2.1512,-2.151,-2.1491,-2.1491,-2.1491,-2.1491,0,-2.2312,-2.2257,-2.2209,-2.2132,-2.2112,-2.209,-2.2022,-2.1994,-2.1948,-2.1903,-2.1888,-2.1815,-2.176,-2.1697,-2.1621,-2.1589,-2.1544,-2.1527,-2.1566,-2.1559,-2.1555,-2.1556,-2.1556,-2.1552,-2.1521,-2.1522,-2.1522,0,-2.2324,-2.2301,-2.2222,-2.2195,-2.216,-2.2118,-2.2084,-2.2023,-2.1989,-2.1917,-2.1897,-2.1839,-2.1789,-2.1703,-2.1641,-2.1581,-2.1561,-2.1565,-2.1552,-2.1568,-2.1559,-2.1561,-2.1557,-2.1569,-2.157,-2.157,-2.1571,0,-2.2349,-2.2323,-2.2279,-2.2224,-2.2187,-2.214,-2.2091,-2.2071,-2.1998,-2.1963,-2.1908,-2.1869,-2.1792,-2.1733,-2.1666,-2.1623,-2.1584,-2.1576,-2.1571,-2.1587,-2.161,-2.1596,-2.1575,-2.1576,-2.1575,-2.1575,-2.1575,-2.1574,-2.2376,-2.2353,-2.2294,-2.2245,-2.2202,-2.2157,-2.2127,-2.2078,-2.2032,-2.1966,-2.1931,-2.1876,-2.1811,-2.1717,-2.1676,-2.1629,-2.1616,-2.1609,-2.1607,-2.1606,-2.161,-2.1619,-2.1616,-2.1616,-2.1616,-2.1616,-2.1616,0,-2.2398,-2.2357,-2.2313,-2.2247,-2.2208,-2.2178,-2.2121,-2.2089,-2.2043,-2.1988,-2.194,-2.1875,-2.1817,-2.1751,-2.1688,-2.1663,-2.1643,-2.1648,-2.1649,-2.1639,-2.1626,-2.1636,-2.1666,-2.1666,-2.1666,-2.1666,-2.1666,-2.1666,-2.2404,-2.2363,-2.2329,-2.2263,-2.2221,-2.217,-2.2139,-2.2096,-2.2052,-2.1983,-2.1936,-2.1894,-2.1833,-2.1765,-2.1709,-2.1691,-2.1669,-2.168,-2.1656,-2.1645,-2.164,-2.1636,-2.1645,-2.1676,-2.1676,-2.1672,-2.1672,-2.1672]}]]